Location: Chevoux
(46.3801°N, 4.9476°E)
Time: 22:08:43
(UTC+00:00)

Cosmos 1125 Rocket - Pass Details

Date: 28 January 2021
Orbit: 756 x 781 km, 74.0° (Epoch: 03 March)

Event Time Altitude Azimuth Distance (km) Brightness Sun altitude
Rises 19:01:47 0° 194° (SSW) 3,209 6.9 -24.6°
Reaches altitude 10° 19:04:08 10° 193° (SSW) 2,291 6.1 -25.0°
Enters shadow 19:08:41 65° 161° (SSE) 841 3.5 -25.8°
